TimeEDT,TemperatureF,Dew PointF,Humidity,Sea Level PressureIn,VisibilityMPH,Wind Direction,Wind SpeedMPH,Gust SpeedMPH,PrecipitationIn,Events,Conditions,WindDirDegrees,DateUTC
12:15 AM,51.3,50.0,95,29.96,10.0,Calm,Calm,-,N/A,,Clear,0,2013-06-19 04:15:00
12:35 AM,50.2,49.1,96,29.97,7.0,Calm,Calm,-,N/A,,Clear,0,2013-06-19 04:35:00
12:55 AM,49.3,48.2,96,29.96,7.0,Calm,Calm,-,N/A,,Clear,0,2013-06-19 04:55:00
1:15 AM,48.6,47.7,97,29.96,1.0,Calm,Calm,-,N/A,,Mostly Cloudy,0,2013-06-19 05:15:00
1:35 AM,47.8,46.9,97,29.96,0.8,Calm,Calm,-,N/A,,Overcast,0,2013-06-19 05:35:00
1:55 AM,47.3,46.6,97,29.96,2.5,Calm,Calm,-,N/A,,Mostly Cloudy,0,2013-06-19 05:55:00
2:15 AM,47.1,46.4,97,29.96,0.5,Calm,Calm,-,N/A,Fog,Fog,0,2013-06-19 06:15:00
2:35 AM,47.7,46.8,97,29.96,1.0,Calm,Calm,-,N/A,,Overcast,0,2013-06-19 06:35:00
2:55 AM,49.5,48.6,97,29.96,0.5,Calm,Calm,-,N/A,Fog,Fog,0,2013-06-19 06:55:00
3:15 AM,49.1,48.4,97,29.96,1.8,Calm,Calm,-,N/A,,Overcast,0,2013-06-19 07:15:00
3:35 AM,47.5,46.8,97,29.96,7.0,Calm,Calm,-,N/A,,Overcast,0,2013-06-19 07:35:00
3:55 AM,47.8,47.3,98,29.97,10.0,Calm,Calm,-,N/A,,Overcast,0,2013-06-19 07:55:00
4:15 AM,46.8,46.0,97,29.97,7.0,Calm,Calm,-,N/A,,Mostly Cloudy,0,2013-06-19 08:15:00
4:35 AM,45.5,45.0,98,29.97,5.0,Calm,Calm,-,N/A,,Scattered Clouds,0,2013-06-19 08:35:00
4:55 AM,45.0,44.4,98,29.98,5.0,Calm,Calm,-,N/A,,Scattered Clouds,0,2013-06-19 08:55:00
5:15 AM,43.9,43.3,98,29.98,5.0,Calm,Calm,-,N/A,,Clear,0,2013-06-19 09:15:00
5:35 AM,43.9,43.3,98,29.99,5.0,Calm,Calm,-,N/A,,Clear,0,2013-06-19 09:35:00
5:55 AM,44.4,43.9,98,29.99,5.0,Calm,Calm,-,N/A,,Clear,0,2013-06-19 09:55:00
6:15 AM,45.0,44.6,99,29.99,7.0,Calm,Calm,-,N/A,,Clear,0,2013-06-19 10:15:00
6:35 AM,47.1,46.6,98,30.00,10.0,Calm,Calm,-,N/A,,Clear,0,2013-06-19 10:35:00
6:55 AM,49.8,49.1,97,29.99,10.0,WNW,6.9,-,N/A,,Clear,300,2013-06-19 10:55:00
7:15 AM,52.0,50.4,94,29.99,10.0,WNW,8.1,-,N/A,,Clear,300,2013-06-19 11:15:00
7:35 AM,55.0,48.2,78,30.00,10.0,WNW,6.9,-,N/A,,Clear,300,2013-06-19 11:35:00
7:55 AM,56.5,47.8,73,30.00,10.0,WNW,6.9,-,N/A,,Clear,300,2013-06-19 11:55:00
8:35 AM,59.4,48.0,66,30.01,10.0,WNW,4.6,-,N/A,,Clear,290,2013-06-19 12:35:00
8:55 AM,60.8,47.7,62,30.01,10.0,WNW,8.1,-,N/A,,Clear,300,2013-06-19 12:55:00
9:15 AM,62.1,47.1,58,30.01,10.0,WNW,6.9,-,N/A,,Clear,290,2013-06-19 13:15:00
9:35 AM,63.7,45.9,52,30.01,10.0,West,6.9,-,N/A,,Clear,280,2013-06-19 13:35:00
9:55 AM,65.3,40.8,41,30.01,10.0,North,5.8,-,N/A,,Clear,10,2013-06-19 13:55:00
10:15 AM,65.7,40.3,39,30.01,10.0,WNW,11.5,18.4,N/A,,Clear,300,2013-06-19 14:15:00
10:35 AM,66.4,42.3,41,30.02,10.0,WNW,11.5,-,N/A,,Scattered Clouds,300,2013-06-19 14:35:00
10:55 AM,67.1,39.2,36,30.02,10.0,North,5.8,-,N/A,,Clear,10,2013-06-19 14:55:00
11:15 AM,67.3,37.6,34,30.02,10.0,NNE,3.5,-,N/A,,Clear,30,2013-06-19 15:15:00
11:35 AM,67.5,37.0,33,30.03,10.0,North,5.8,-,N/A,,Clear,350,2013-06-19 15:35:00
11:55 AM,68.0,35.8,31,30.02,10.0,NW,4.6,-,N/A,,Clear,320,2013-06-19 15:55:00
12:15 PM,68.9,37.2,31,30.03,10.0,North,4.6,-,N/A,,Clear,350,2013-06-19 16:15:00
12:35 PM,68.2,38.3,33,30.03,10.0,WNW,8.1,-,N/A,,Clear,290,2013-06-19 16:35:00
12:55 PM,69.3,40.5,35,30.03,10.0,WNW,10.4,17.3,N/A,,Scattered Clouds,290,2013-06-19 16:55:00
1:15 PM,69.4,40.1,34,30.03,10.0,West,11.5,18.4,N/A,,Scattered Clouds,260,2013-06-19 17:15:00
1:35 PM,70.5,39.7,33,30.02,10.0,West,10.4,17.3,N/A,,Scattered Clouds,280,2013-06-19 17:35:00
1:55 PM,70.5,40.1,33,30.02,10.0,West,9.2,17.3,N/A,,Scattered Clouds,260,2013-06-19 17:55:00
2:15 PM,70.9,40.1,33,30.02,10.0,West,11.5,20.7,N/A,,Mostly Cloudy,280,2013-06-19 18:15:00
2:35 PM,71.8,40.5,32,30.02,10.0,West,11.5,17.3,N/A,,Scattered Clouds,270,2013-06-19 18:35:00
2:55 PM,71.8,40.3,32,30.03,10.0,West,10.4,17.3,N/A,,Scattered Clouds,280,2013-06-19 18:55:00
3:15 PM,71.6,39.0,31,30.03,10.0,West,9.2,17.3,N/A,,Clear,280,2013-06-19 19:15:00
3:35 PM,72.0,39.4,31,30.03,10.0,WNW,11.5,-,N/A,,Clear,290,2013-06-19 19:35:00
3:55 PM,72.5,39.7,31,30.03,10.0,WNW,9.2,-,N/A,,Clear,290,2013-06-19 19:55:00
4:15 PM,72.0,37.6,29,30.03,10.0,West,12.7,17.3,N/A,,Clear,270,2013-06-19 20:15:00
4:35 PM,71.6,36.5,28,30.04,10.0,West,9.2,18.4,N/A,,Clear,280,2013-06-19 20:35:00
4:55 PM,72.0,37.0,28,30.04,10.0,West,11.5,17.3,N/A,,Clear,270,2013-06-19 20:55:00
5:15 PM,71.8,35.8,27,30.03,10.0,West,8.1,-,N/A,,Clear,260,2013-06-19 21:15:00
5:35 PM,71.8,36.3,27,30.04,10.0,West,9.2,-,N/A,,Clear,260,2013-06-19 21:35:00
5:55 PM,71.6,36.0,27,30.04,10.0,West,9.2,-,N/A,,Clear,260,2013-06-19 21:55:00
6:15 PM,71.2,36.5,28,30.05,10.0,WNW,8.1,-,N/A,,Clear,290,2013-06-19 22:15:00
6:35 PM,70.7,34.9,27,30.05,10.0,NW,6.9,-,N/A,,Clear,320,2013-06-19 22:35:00
6:55 PM,70.5,36.9,29,30.05,10.0,WNW,6.9,-,N/A,,Clear,300,2013-06-19 22:55:00
7:15 PM,69.8,36.5,29,30.06,10.0,WNW,5.8,-,N/A,,Clear,300,2013-06-19 23:15:00
7:35 PM,68.9,38.1,32,30.07,10.0,WNW,3.5,-,N/A,,Clear,300,2013-06-19 23:35:00
7:55 PM,67.6,39.7,36,30.07,10.0,Calm,Calm,-,N/A,,Clear,0,2013-06-19 23:55:00
8:15 PM,64.8,44.1,47,30.08,10.0,Calm,Calm,-,N/A,,Clear,0,2013-06-20 00:15:00
8:35 PM,60.1,45.3,58,30.09,10.0,Calm,Calm,-,N/A,,Clear,0,2013-06-20 00:35:00
8:55 PM,58.8,47.5,66,30.10,10.0,Calm,Calm,-,N/A,,Clear,0,2013-06-20 00:55:00
9:15 PM,56.1,45.9,68,30.11,10.0,Calm,Calm,-,N/A,,Clear,0,2013-06-20 01:15:00
9:35 PM,54.5,47.1,76,30.12,10.0,NW,3.5,-,N/A,,Clear,320,2013-06-20 01:35:00
9:55 PM,53.2,47.7,81,30.13,10.0,Calm,Calm,-,N/A,,Clear,0,2013-06-20 01:55:00
10:15 PM,52.2,47.3,83,30.13,10.0,Calm,Calm,-,N/A,,Clear,0,2013-06-20 02:15:00
10:35 PM,52.3,46.4,80,30.14,10.0,Calm,Calm,-,N/A,,Clear,0,2013-06-20 02:35:00
10:55 PM,50.9,46.9,86,30.15,10.0,Calm,Calm,-,N/A,,Clear,0,2013-06-20 02:55:00
11:15 PM,50.2,46.9,89,30.15,10.0,Calm,Calm,-,N/A,,Clear,0,2013-06-20 03:15:00
11:35 PM,49.5,46.6,90,30.16,10.0,Calm,Calm,-,N/A,,Clear,0,2013-06-20 03:35:00
11:55 PM,48.4,46.2,92,30.17,10.0,Calm,Calm,-,N/A,,Clear,0,2013-06-20 03:55:00